{"data":{"norad_id":64829,"epoch":"2026-05-24T20:55:02.949888Z","epoch_age_seconds":92962,"freshness":"FRESH","line1":"1 64829U 25151P   26144.87156192  .00003278  00000+0  45851-3 0  9994","line2":"2 64829  51.9010 318.7203 0000777 127.6652 232.4381 14.79957414 47848","mean_motion":14.79957414,"eccentricity":7.77e-5,"inclination_deg":51.901,"raan_deg":318.7203,"arg_perigee_deg":127.6652,"mean_anomaly_deg":232.4381,"bstar":0.00045851,"rev_number":4784,"period_min":97.300097041846,"perigee_km":628.91407111115,"apogee_km":630.00305146138,"semimajor_km":7007.5955612863,"source":"CELESTRAK","updated_at":"2026-05-25T13:38:04.825159Z"}}